Weather History for MMIO - January, 2013

Change the Weather History Date:

Thursday, January 24, 2013

  Actual Average Record
Temperature  
Mean Temperature 58 °F -  
Max Temperature 74 °F 64 °F 82 °F (2012)
Min Temperature 42 °F 45 °F 26 °F (2014)
Degree Days  
Heating Degree Days 7    
Growing Degree Days 8 (Base 50)    
Moisture  
Dew Point 45 °F    
Average Humidity 56    
Maximum Humidity 76    
Minimum Humidity 19    
Precipitation  
Precipitation 0.00 in - - ()
Sea Level Pressure  
Sea Level Pressure 30.28 in    
Wind  
Wind Speed 8 mph ()    
Max Wind Speed 17 mph    
Max Gust Speed -    
Visibility 9.1 miles    
Events      
Averages and records for this station are not official NWS values.
T = Trace of Precipitation, MM = Missing Value Source: Averaged Metar Reports

Daily Weather History Graph

Daily Weather History Graph

Search for Another Location

Airport or City:

Trip Planner

Search our weather history database for the weather conditions in past years. The results will help you decide how hot, cold, wet, or windy it might be!

Date:

Astronomy

Jan. 24, 2013 Rise Set
Actual Time 7:29 AM CST 6:22 PM CST
Civil Twilight 7:05 AM CST 6:46 PM CST
Nautical Twilight 6:37 AM CST 7:14 PM CST
Astronomical Twilight 6:10 AM CST 7:41 PM CST
Moon 4:28 PM CST (1/24) 5:25 AM CST (1/24)
Length of Visible Light 11h 40m
Length of Day
10h 52m
Waxing Gibbous, 94% of the Moon is Illuminated
Jan 24
Waxing Gibbous
Jan 26
Full
Feb 3
Last Quarter
Feb 10
New
Feb 17
First Quarter

Hourly Weather History & Observations

Time (CST) Temp. Dew Point Humidity Pressure Visibility Wind Dir Wind Speed Gust Speed Precip Events Conditions
12:40 AM 51.8 °F 44.6 °F 76% 30.34 in 10.0 mi Calm Calm - N/A   Clear
2:30 AM 45 °F 38 °F 70% 30.23 in 3 mi South 6.7 mph - -   Haze
3:40 AM 50.0 °F 42.8 °F 76% 30.34 in 10.0 mi South 17.3 mph - N/A   Clear
4:40 AM 50.0 °F 42.8 °F 76% 30.34 in 10.0 mi South 17.3 mph - N/A   Clear
5:30 AM 44 °F 35 °F 62% 30.29 in 3 mi South 6.7 mph - -   Clear
5:40 AM 51.8 °F 42.8 °F 71% 30.36 in 10.0 mi Calm Calm - N/A   Clear
6:40 AM 53.6 °F 44.6 °F 72% 30.36 in 10.0 mi South 17.3 mph - N/A   Clear
7:40 AM 53.6 °F 44.6 °F 72% 30.36 in 10.0 mi South 17.3 mph - N/A   Clear
8:30 AM 47 °F 35 °F 53% 30.36 in 11 mi South 6.7 mph - -   Clear
8:40 AM 59.0 °F 42.8 °F 55% 30.38 in 10.0 mi South 13.8 mph - N/A   Clear
9:40 AM 60.8 °F 41.0 °F 48% 30.39 in 10.0 mi South 16.1 mph - N/A   Clear
10:40 AM 73.4 °F 50.0 °F 44% 30.39 in 10.0 mi South 6.9 mph - N/A   Clear
11:30 AM 67 °F 35 °F 19% 30.31 in 11 mi SE 4.5 mph - -   Clear
11:40 AM 77.0 °F 50.0 °F 39% 30.36 in 10.0 mi WNW 5.8 mph - N/A   Clear
12:40 PM 78.8 °F 51.8 °F 39% 30.32 in 10.0 mi Calm Calm - N/A   Clear
1:40 PM 77.0 °F 59.0 °F 54% 30.29 in 10.0 mi NNW 13.8 mph - N/A   Clear
2:40 PM 77.0 °F 59.0 °F 54% 30.26 in 10.0 mi North 17.3 mph - N/A   Clear
3:40 PM 77.0 °F 59.0 °F 54% 30.24 in 10.0 mi NE 17.3 mph - N/A   Clear
4:40 PM 73.4 °F 55.4 °F 53% 30.24 in 10.0 mi NE 17.3 mph - N/A   Clear
5:30 PM 67 °F 39 °F 25% 30.03 in 11 mi SE 6.7 mph - -   Clear
5:40 PM 68.0 °F 51.8 °F 56% 30.24 in 10.0 mi NE 17.3 mph - N/A   Clear
6:40 PM 64.4 °F 50.0 °F 59% 30.26 in 10.0 mi NNE 17.3 mph - N/A   Clear
7:40 PM 64.4 °F 50.0 °F 59% 30.26 in 10.0 mi NE 13.8 mph - N/A   Clear
8:30 PM 49 °F 36 °F 50% 30.03 in 3 mi SSW 6.7 mph - -   Haze
8:40 PM 60.8 °F 46.4 °F 59% 30.28 in 10.0 mi Calm Calm - N/A   Clear
9:40 PM 59.0 °F 46.4 °F 63% 30.28 in 10.0 mi Calm Calm - N/A   Clear
10:40 PM 59.0 °F 46.4 °F 63% 30.28 in 10.0 mi Calm Calm - N/A   Clear
11:30 PM 47 °F 30 °F 39% 30.09 in 3 mi WSW 4.5 mph - -   Haze
11:40 PM 57.2 °F 46.4 °F 67% 30.29 in 10.0 mi South 6.9 mph - N/A   Clear